Freeport, IL

1:58 AM CST on November 21, 2019 (GMT -0600)
Albertus

Weather History for KFEP - October, 2019

Change the Weather History Date:

Monday, October 21, 2019

  Actual Average Record
Temperature  
Mean Temperature 56 °F -  
Max Temperature 63 °F 59 °F 79 °F (1979)
Min Temperature 48 °F 37 °F 20 °F (2018)
Degree Days  
Heating Degree Days 10    
Growing Degree Days 6 (Base 50)    
Moisture  
Dew Point 47 °F    
Average Humidity 80    
Maximum Humidity 100    
Minimum Humidity 49    
Precipitation  
Precipitation 0.22 in - - ()
Sea Level Pressure  
Sea Level Pressure 29.51 in    
Wind  
Wind Speed 16 mph (South)    
Max Wind Speed 29 mph    
Max Gust Speed 40 mph    
Visibility 8 miles    
Events Rain , Thunderstorm    
Averages and records for this station are not official NWS values.
T = Trace of Precipitation, MM = Missing Value Source: NWS Daily Summary

Daily Weather History Graph

Daily Weather History Graph

Search for Another Location

Airport or City:

Astronomy

Oct. 21, 2019 Rise Set
Actual Time 7:17 AM CDT 6:07 PM CDT
Civil Twilight 6:49 AM CDT 6:35 PM CDT
Nautical Twilight 6:16 AM CDT 7:08 PM CDT
Astronomical Twilight 5:44 AM CDT 7:40 PM CDT
Moon No Moon Rise 2:39 PM CDT
Length of Visible Light 11h 46m
Length of Day
10h 49m
Waning Gibbous, 48% of the Moon is Illuminated
Oct 21
Waning Gibbous
Oct 27
New
Nov 4
First Quarter
Nov 12
Full
Nov 19
Last Quarter

Hourly Weather History & Observations

Time (CDT) Temp. Dew Point Humidity Pressure Visibility Wind Dir Wind Speed Gust Speed Precip Events Conditions
12:15 AM 49.3 °F 47.5 °F 94% 29.83 in 7.0 mi ESE 8.1 mph - N/A   Scattered Clouds
12:35 AM 49.1 °F 47.7 °F 95% 29.82 in 7.0 mi ESE 9.2 mph - N/A   Scattered Clouds
12:55 AM 49.1 °F 47.7 °F 95% 29.80 in 7.0 mi East 10.4 mph - N/A   Overcast
1:15 AM 49.3 °F 48.2 °F 96% 29.81 in 10.0 mi ESE 9.2 mph - N/A   Overcast
1:35 AM 49.3 °F 48.4 °F 97% 29.81 in 7.0 mi ESE 12.7 mph - N/A   Overcast
1:55 AM 48.9 °F 48.6 °F 99% 29.79 in 7.0 mi ESE 12.7 mph - N/A   Overcast
2:35 AM 49.1 °F 49.1 °F 100% 29.78 in 4.0 mi ESE 12.7 mph - N/A   Overcast
2:55 AM 49.6 °F 49.6 °F 100% 29.77 in 4.0 mi ESE 11.5 mph - N/A   Overcast
3:15 AM 50.0 °F 50.0 °F 100% 29.74 in 5.0 mi ESE 15.0 mph 18.4 mph N/A   Overcast
3:35 AM 50.2 °F 50.0 °F 99% 29.72 in 5.0 mi ESE 12.7 mph 17.3 mph N/A   Overcast
3:55 AM 50.4 °F 50.0 °F 99% 29.71 in 5.0 mi ESE 11.5 mph 16.1 mph N/A   Overcast
4:15 AM 50.5 °F 50.2 °F 99% 29.69 in 7.0 mi ESE 12.7 mph 18.4 mph N/A   Mostly Cloudy
4:35 AM 51.1 °F 50.4 °F 97% 29.67 in 7.0 mi ESE 10.4 mph - N/A   Mostly Cloudy
4:55 AM 52.0 °F 50.5 °F 95% 29.65 in 7.0 mi ESE 15.0 mph 19.6 mph N/A   Mostly Cloudy
5:15 AM 52.2 °F 50.5 °F 94% 29.65 in 7.0 mi ESE 12.7 mph - N/A   Mostly Cloudy
5:35 AM 52.7 °F 50.9 °F 94% 29.63 in 10.0 mi ESE 16.1 mph - N/A   Mostly Cloudy
5:55 AM 52.7 °F 50.7 °F 93% 29.60 in 7.0 mi ESE 13.8 mph - N/A   Overcast
6:15 AM 53.2 °F 50.9 °F 92% 29.59 in 10.0 mi ESE 15.0 mph - N/A   Mostly Cloudy
6:35 AM 54.1 °F 50.9 °F 89% 29.57 in 10.0 mi ESE 15.0 mph 23.0 mph N/A   Mostly Cloudy
6:55 AM 54.9 °F 50.9 °F 86% 29.54 in 10.0 mi ESE 17.3 mph 25.3 mph N/A   Scattered Clouds
7:15 AM 55.0 °F 50.9 °F 86% 29.53 in 10.0 mi ESE 18.4 mph 25.3 mph N/A Thunderstorm Scattered Clouds
7:35 AM 55.4 °F 51.1 °F 85% 29.50 in 10.0 mi ESE 15.0 mph 25.3 mph N/A Thunderstorm Mostly Cloudy
7:55 AM 54.9 °F 52.9 °F 93% 29.46 in 7.0 mi ESE 18.4 mph 26.5 mph 0.01 in Rain Light Rain
8:15 AM 54.5 °F 54.5 °F 100% 29.43 in 1.2 mi ESE 21.9 mph 36.8 mph 0.03 in Rain Rain
8:35 AM 54.9 °F 54.9 °F 100% 29.44 in 7.0 mi SE 18.4 mph 31.1 mph 0.05 in Rain Light Rain
8:55 AM 55.6 °F 55.6 °F 100% 29.44 in 10.0 mi SE 21.9 mph 31.1 mph 0.05 in   Overcast
9:15 AM 55.6 °F 55.6 °F 100% 29.42 in 2.0 mi SE 21.9 mph 29.9 mph 0.05 in Rain Rain
9:35 AM 55.6 °F 55.6 °F 100% 29.40 in 2.5 mi SE 23.0 mph 29.9 mph 0.09 in Rain Light Rain
9:55 AM 56.1 °F 56.1 °F 100% 29.38 in 1.8 mi SE 18.4 mph 33.4 mph 0.11 in Rain Light Rain
10:15 AM 55.9 °F 55.9 °F 100% 29.37 in 1.8 mi SE 16.1 mph 24.2 mph 0.01 in Rain Light Rain
10:35 AM 55.9 °F 55.9 °F 100% 29.36 in 1.5 mi SSE 20.7 mph 28.8 mph 0.03 in Rain Light Rain
10:55 AM 56.7 °F 56.7 °F 100% 29.35 in 3.0 mi SSE 21.9 mph 27.6 mph 0.05 in Rain Light Rain
11:15 AM 58.1 °F 58.1 °F 100% 29.36 in 10.0 mi South 20.7 mph 40.3 mph N/A   Overcast
11:35 AM 58.6 °F 58.6 °F 100% 29.36 in 7.0 mi SSW 17.3 mph - N/A   Overcast
11:55 AM 59.2 °F 59.2 °F 100% 29.36 in 10.0 mi SSW 19.6 mph 29.9 mph N/A   Overcast
12:15 PM 60.8 °F 59.7 °F 96% 29.35 in 10.0 mi SSW 21.9 mph 31.1 mph N/A   Overcast
12:35 PM 61.5 °F 58.3 °F 89% 29.36 in 10.0 mi SW 28.8 mph 35.7 mph N/A   Overcast
12:55 PM 60.6 °F 56.5 °F 86% 29.36 in 10.0 mi SW 18.4 mph 27.6 mph N/A   Mostly Cloudy
1:15 PM 63.3 °F 54.1 °F 72% 29.36 in 10.0 mi SSW 20.7 mph 34.5 mph N/A   Mostly Cloudy
1:35 PM 62.2 °F 53.2 °F 72% 29.36 in 10.0 mi SSW 18.4 mph 28.8 mph N/A   Mostly Cloudy
1:55 PM 63.7 °F 48.2 °F 57% 29.35 in 10.0 mi SSW 24.2 mph 35.7 mph N/A   Mostly Cloudy
2:15 PM 63.5 °F 44.1 °F 49% 29.36 in 10.0 mi SW 23.0 mph 38.0 mph N/A   Clear
2:35 PM 61.2 °F 44.8 °F 55% 29.36 in 10.0 mi SSW 25.3 mph 34.5 mph N/A   Scattered Clouds
2:55 PM 61.2 °F 44.1 °F 53% 29.36 in 10.0 mi SSW 24.2 mph 35.7 mph N/A   Scattered Clouds
3:15 PM 61.2 °F 43.3 °F 52% 29.37 in 10.0 mi SSW 28.8 mph 34.5 mph N/A   Scattered Clouds
3:35 PM 60.3 °F 41.4 °F 50% 29.39 in 10.0 mi SW 24.2 mph 36.8 mph N/A   Scattered Clouds
3:55 PM 60.3 °F 41.2 °F 49% 29.40 in 10.0 mi SW 23.0 mph 34.5 mph N/A   Scattered Clouds
4:15 PM 58.6 °F 40.5 °F 51% 29.42 in 10.0 mi SW 23.0 mph 38.0 mph N/A   Scattered Clouds
4:35 PM 56.8 °F 41.2 °F 56% 29.43 in 10.0 mi SSW 23.0 mph 31.1 mph N/A   Mostly Cloudy
4:55 PM 56.3 °F 40.8 °F 56% 29.43 in 10.0 mi SW 24.2 mph 31.1 mph N/A   Overcast
5:15 PM 55.6 °F 40.8 °F 58% 29.44 in 10.0 mi SSW 24.2 mph 33.4 mph N/A   Overcast
5:35 PM 54.9 °F 40.8 °F 59% 29.44 in 10.0 mi SW 28.8 mph 35.7 mph N/A   Overcast
5:55 PM 53.8 °F 39.7 °F 59% 29.46 in 10.0 mi SW 28.8 mph 40.3 mph N/A   Overcast
6:15 PM 51.8 °F 38.3 °F 60% 29.48 in 10.0 mi SW 18.4 mph 35.7 mph N/A   Overcast
6:35 PM 51.1 °F 37.2 °F 59% 29.49 in 10.0 mi SW 21.9 mph 32.2 mph N/A   Overcast
6:55 PM 50.9 °F 37.6 °F 60% 29.50 in 10.0 mi SW 23.0 mph 31.1 mph N/A   Overcast
7:15 PM 50.5 °F 37.9 °F 62% 29.51 in 10.0 mi SSW 17.3 mph 24.2 mph N/A   Overcast
7:35 PM 50.4 °F 38.3 °F 63% 29.51 in 10.0 mi SSW 17.3 mph 27.6 mph N/A   Overcast
7:55 PM 50.4 °F 38.7 °F 64% 29.51 in 10.0 mi SSW 16.1 mph 23.0 mph N/A   Overcast
8:15 PM 50.4 °F 39.2 °F 66% 29.51 in 10.0 mi SSW 13.8 mph 20.7 mph N/A   Overcast
8:35 PM 50.2 °F 39.6 °F 67% 29.50 in 10.0 mi SSW 18.4 mph 21.9 mph N/A   Overcast
8:55 PM 50.2 °F 39.6 °F 67% 29.49 in 10.0 mi SSW 15.0 mph 21.9 mph N/A   Overcast
9:15 PM 49.6 °F 40.3 °F 70% 29.49 in 10.0 mi SW 17.3 mph 25.3 mph N/A   Overcast
9:35 PM 50.4 °F 39.9 °F 67% 29.49 in 10.0 mi SSW 17.3 mph 23.0 mph N/A   Overcast
9:55 PM 50.5 °F 39.7 °F 66% 29.49 in 10.0 mi SSW 17.3 mph 23.0 mph N/A   Overcast
10:15 PM 50.4 °F 40.1 °F 68% 29.47 in 10.0 mi SSW 17.3 mph 24.2 mph N/A   Overcast
10:35 PM 49.6 °F 40.1 °F 70% 29.46 in 10.0 mi SSW 13.8 mph 25.3 mph N/A   Overcast
10:55 PM 50.4 °F 40.3 °F 68% 29.46 in 10.0 mi SW 20.7 mph 27.6 mph N/A   Overcast
11:15 PM 50.0 °F 40.6 °F 70% 29.45 in 10.0 mi SW 20.7 mph 31.1 mph N/A   Overcast
11:35 PM 50.2 °F 40.6 °F 70% 29.44 in 10.0 mi SSW 20.7 mph 26.5 mph N/A   Overcast
11:55 PM 50.4 °F 41.0 °F 70% 29.43 in 10.0 mi SSW 24.2 mph 32.2 mph N/A   Overcast